Weather History for Hailey, ID

Change the Weather History Date:

Sunday, September 1, 2013

  Actual Average Record
Temperature  
Mean Temperature 71 °F -  
Max Temperature 87 °F 75 °F 89 °F (1998)
Min Temperature 55 °F 46 °F 30 °F (1996)
Cooling Degree Days 6    
Growing Degree Days 21 (Base 50)    
Moisture  
Dew Point 35 °F    
Average Humidity 33    
Maximum Humidity 46    
Minimum Humidity 18    
Precipitation  
Precipitation 0.00 in - - ()
Sea Level Pressure  
Sea Level Pressure 30.12 in    
Wind  
Wind Speed 10 mph (NW)    
Max Wind Speed 13 mph    
Max Gust Speed 18 mph    
Visibility 9 miles    
Events      
Averages and records for this station are not official NWS values.
T = Trace of Precipitation, MM = Missing Value Source: NWS Daily Summary

Daily Weather History Graph

Daily Weather History Graph

Search for Another Location

Airport:

Trip Planner

Search our weather history database for the weather conditions in past years. The results will help you decide how hot, cold, wet, or windy it might be!

Date:

Astronomy

Sep. 01, 2013 Rise Set
Actual Time 7:01 AM MDT 8:11 PM MDT
Civil Twilight 6:31 AM MDT 8:41 PM MDT
Nautical Twilight 5:56 AM MDT 9:16 PM MDT
Astronomical Twilight 5:19 AM MDT 9:53 PM MDT
Moon 3:22 AM MDT (9/1) 5:55 PM MDT (9/1)
Length of Visible Light 14h 09m
Length of Day
13h 10m
Waning Crescent, 13% of the Moon is Illuminated
Sep 1
Waning Crescent
Sep 5
New
Sep 12
First Quarter
Sep 19
Full
Sep 26
Last Quarter

Hourly Weather History & Observations

Time (MDT) Temp. Dew Point Humidity Pressure Visibility Wind Dir Wind Speed Gust Speed Precip Events Conditions
12:15 AM 64.4 °F 33.8 °F 32% 30.14 in 10.0 mi NW 10.4 mph - N/A   Overcast
12:35 AM 64.4 °F 33.8 °F 32% 30.14 in 10.0 mi NW 9.2 mph - N/A   Overcast
12:55 AM 62.6 °F 32.0 °F 32% 30.14 in 10.0 mi NW 9.2 mph - N/A   Overcast
1:15 AM 62.6 °F 32.0 °F 32% 30.14 in 10.0 mi NW 9.2 mph - N/A   Overcast
1:35 AM 62.6 °F 32.0 °F 32% 30.14 in 10.0 mi NW 9.2 mph - N/A   Scattered Clouds
1:55 AM 60.8 °F 32.0 °F 34% 30.14 in 10.0 mi WNW 10.4 mph - N/A   Clear
2:15 AM 60.8 °F 32.0 °F 34% 30.14 in 10.0 mi WNW 11.5 mph - N/A   Clear
2:35 AM 60.8 °F 32.0 °F 34% 30.14 in 10.0 mi NNW 9.2 mph - N/A   Clear
2:55 AM 60.8 °F 32.0 °F 34% 30.14 in 10.0 mi WNW 10.4 mph - N/A   Clear
3:15 AM 60.8 °F 32.0 °F 34% 30.15 in 10.0 mi NNW 9.2 mph - N/A   Clear
3:35 AM 59.0 °F 32.0 °F 36% 30.14 in 10.0 mi NW 6.9 mph - N/A   Clear
3:55 AM 59.0 °F 32.0 °F 36% 30.14 in 10.0 mi WNW 11.5 mph - N/A   Clear
4:15 AM 57.2 °F 32.0 °F 38% 30.14 in 10.0 mi NW 10.4 mph - N/A   Clear
4:35 AM 57.2 °F 32.0 °F 38% 30.14 in 10.0 mi NW 10.4 mph - N/A   Clear
4:55 AM 57.2 °F 30.2 °F 36% 30.14 in 10.0 mi NW 11.5 mph - N/A   Clear
5:15 AM 57.2 °F 30.2 °F 36% 30.14 in 10.0 mi NW 11.5 mph - N/A   Clear
5:35 AM 57.2 °F 30.2 °F 36% 30.14 in 10.0 mi NW 12.7 mph - N/A   Clear
5:55 AM 55.4 °F 30.2 °F 38% 30.14 in 10.0 mi NW 12.7 mph - N/A   Clear
6:15 AM 55.4 °F 30.2 °F 38% 30.14 in 10.0 mi NW 10.4 mph - N/A   Clear
6:35 AM 55.4 °F 30.2 °F 38% 30.15 in 10.0 mi NW 10.4 mph - N/A   Clear
6:47 AM 55.4 °F 30.2 °F 38% 30.15 in 6.0 mi WNW 10.4 mph - N/A   Smoke
6:55 AM 55.4 °F 30.2 °F 38% 30.15 in 10.0 mi NW 10.4 mph - N/A   Clear
7:50 AM 55.4 °F 30.2 °F 38% 30.16 in 6.0 mi WNW 11.5 mph - N/A   Smoke
8:47 AM 59.0 °F 32.0 °F 36% 30.17 in 6.0 mi WNW 11.5 mph 18.4 mph N/A   Smoke
9:47 AM 64.4 °F 33.8 °F 32% 30.16 in 6.0 mi WNW 11.5 mph - N/A   Smoke
10:47 AM 73.4 °F 35.6 °F 25% 30.15 in 6.0 mi NW 9.2 mph - N/A   Smoke
11:47 AM 78.8 °F 39.2 °F 24% 30.14 in 7.0 mi SE 5.8 mph - N/A   Smoke
12:50 PM 84.2 °F 39.2 °F 20% 30.13 in 7.0 mi ESE 8.1 mph - N/A   Smoke
1:55 PM 84.2 °F 39.2 °F 20% 30.11 in 7.0 mi SE 9.2 mph - N/A   Smoke
2:47 PM 87.8 °F 39.2 °F 18% 30.10 in 5.0 mi ESE 11.5 mph - N/A   Smoke
3:47 PM 87.8 °F 39.2 °F 18% 30.08 in 5.0 mi SE 11.5 mph - N/A   Smoke
4:47 PM 87.8 °F 39.2 °F 18% 30.06 in 5.0 mi SE 11.5 mph - N/A   Smoke
5:47 PM 84.2 °F 44.6 °F 25% 30.04 in 5.0 mi SSE 9.2 mph - N/A   Smoke
6:47 PM 82.4 °F 50.0 °F 32% 30.03 in 5.0 mi SSE 3.5 mph - N/A   Smoke
7:47 PM 77.0 °F 46.4 °F 34% 30.03 in 5.0 mi SSE 4.6 mph - N/A   Smoke
8:47 PM 71.6 °F 50.0 °F 46% 30.03 in 10.0 mi Calm Calm - N/A   Smoke
9:47 PM 71.6 °F 42.8 °F 35% 30.06 in 10.0 mi NW 8.1 mph - N/A   Smoke
10:47 PM 68.0 °F 42.8 °F 40% 30.06 in 10.0 mi NW 9.2 mph - N/A   Smoke
11:15 PM 68.0 °F 37.4 °F 33% 30.07 in 10.0 mi WNW 8.1 mph - N/A   Clear
11:35 PM 68.0 °F 37.4 °F 33% 30.07 in 10.0 mi NW 8.1 mph - N/A   Clear
11:55 PM 68.0 °F 37.4 °F 33% 30.07 in 10.0 mi WNW 8.1 mph - N/A   Clear